| time (UTC) | temp F | wind direction | speed knots | gust knots | rain 1hr in | rain 24hr in | rain mn in | humidity % | barometer mb |
| 20260504002516 | 79 | 342 | 1.7 | 5.2 | 0.00 | 0.00 | 0.00 | 40 | 1001.5 |
| 20260504001515 | 79 | 325 | 2.6 | 8.7 | 0.00 | 0.00 | 0.00 | 40 | 1001.6 |
| 20260504000516 | 79 | 333 | 2.6 | 6.1 | 0.00 | 0.00 | 0.00 | 40 | 1001.7 |
| 20260503235516 | 79 | 343 | 3.5 | 7.0 | 0.00 | 0.00 | 0.00 | 40 | 1001.8 |
| 20260503234516 | 79 | 334 | 3.5 | 9.6 | 0.00 | 0.00 | 0.00 | 40 | 1001.9 |
| 20260503233516 | 79 | 329 | 2.6 | 5.2 | 0.00 | 0.00 | 0.00 | 38 | 1002.0 |
| 20260503232516 | 79 | 354 | 3.5 | 8.7 | 0.00 | 0.00 | 0.00 | 38 | 1002.2 |
| 20260503231517 | 79 | 332 | 2.6 | 7.8 | 0.00 | 0.00 | 0.00 | 38 | 1002.3 |
| 20260503230517 | 79 | 338 | 2.6 | 7.8 | 0.00 | 0.00 | 0.00 | 39 | 1002.4 |
| 20260503225517 | 80 | 336 | 2.6 | 6.1 | 0.00 | 0.00 | 0.00 | 39 | 1002.6 |
| 20260503224517 | 80 | 307 | 2.6 | 7.0 | 0.00 | 0.00 | 0.00 | 39 | 1002.8 |
| 20260503223517 | 80 | 103 | 1.7 | 4.3 | 0.00 | 0.00 | 0.00 | 38 | 1002.9 |
| 20260503222517 | 80 | 358 | 1.7 | 3.5 | 0.00 | 0.00 | 0.00 | 38 | 1003.1 |
| 20260503221518 | 80 | 52 | 2.6 | 7.0 | 0.00 | 0.00 | 0.00 | 39 | 1003.1 |
| 20260503220518 | 79 | 289 | 1.7 | 6.1 | 0.00 | 0.00 | 0.00 | 40 | 1003.3 |
| 20260503215518 | 79 | 338 | 2.6 | 6.1 | 0.00 | 0.00 | 0.00 | 39 | 1003.3 |
| 20260503214518 | 79 | 349 | 1.7 | 5.2 | 0.00 | 0.00 | 0.00 | 40 | 1003.4 |
| 20260503213539 | 79 | 334 | 4.3 | 8.7 | 0.00 | 0.00 | 0.00 | 39 | 1003.5 |
| 20260503212516 | 79 | 339 | 2.6 | 7.8 | 0.00 | 0.00 | 0.00 | 40 | 1003.7 |
| 20260503211515 | 78 | 339 | 2.6 | 7.0 | 0.00 | 0.00 | 0.00 | 41 | 1003.8 |
| 20260503210516 | 78 | 33 | 1.7 | 6.1 | 0.00 | 0.00 | 0.00 | 44 | 1003.8 |
| 20260503205516 | 78 | 347 | 2.6 | 7.8 | 0.00 | 0.00 | 0.00 | 44 | 1004.0 |
| 20260503204516 | 77 | 48 | 1.7 | 5.2 | 0.00 | 0.00 | 0.00 | 44 | 1004.1 |
| 20260503203516 | 77 | 74 | 1.7 | 6.1 | 0.00 | 0.00 | 0.00 | 45 | 1004.1 |
| 20260503202517 | 77 | 36 | 1.7 | 5.2 | 0.00 | 0.00 | 0.00 | 44 | 1004.2 |
| 20260503201517 | 77 | 84 | 2.6 | 7.0 | 0.00 | 0.00 | 0.00 | 44 | 1004.3 |
| 20260503200517 | 76 | 359 | 1.7 | 5.2 | 0.00 | 0.00 | 0.00 | 45 | 1004.5 |
| 20260503195557 | 76 | 338 | 2.6 | 6.1 | 0.00 | 0.00 | 0.00 | 47 | 1004.6 |
| 20260503194517 | 76 | 355 | 2.6 | 6.1 | 0.00 | 0.00 | 0.00 | 48 | 1004.8 |
| 20260503193517 | 77 | 335 | 1.7 | 6.1 | 0.00 | 0.00 | 0.00 | 47 | 1004.9 |
| 20260503192517 | 76 | 333 | 1.7 | 4.3 | 0.00 | 0.00 | 0.00 | 48 | 1005.1 |
| 20260503191538 | 76 | 332 | 2.6 | 6.1 | 0.00 | 0.00 | 0.00 | 48 | 1005.2 |
| 20260503190518 | 75 | 360 | 1.7 | 5.2 | 0.00 | 0.00 | 0.00 | 48 | 1005.2 |
| 20260503185518 | 75 | 358 | 1.7 | 6.1 | 0.00 | 0.00 | 0.00 | 47 | 1005.3 |
| 20260503184518 | 74 | 315 | 1.7 | 6.1 | 0.00 | 0.00 | 0.00 | 48 | 1005.4 |
| 20260503183538 | 73 | 172 | 1.7 | 5.2 | 0.00 | 0.00 | 0.00 | 50 | 1005.5 |
| 20260503182516 | 72 | 322 | 3.5 | 7.8 | 0.00 | 0.00 | 0.00 | 51 | 1005.4 |
| 20260503181536 | 72 | 308 | 1.7 | 5.2 | 0.00 | 0.00 | 0.00 | 51 | 1005.5 |
| 20260503180537 | 71 | 353 | 2.6 | 6.1 | 0.00 | 0.00 | 0.00 | 52 | 1005.5 |
| 20260503175516 | 71 | 325 | 2.6 | 7.8 | 0.00 | 0.00 | 0.00 | 53 | 1005.5 |
| 20260503174536 | 71 | 345 | 2.6 | 6.1 | 0.00 | 0.00 | 0.00 | 54 | 1005.6 |
| 20260503173516 | 70 | 298 | 2.6 | 4.3 | 0.00 | 0.00 | 0.00 | 55 | 1005.7 |
| 20260503172516 | 70 | 330 | 2.6 | 7.8 | 0.00 | 0.00 | 0.00 | 56 | 1005.7 |
| 20260503171517 | 69 | 303 | 1.7 | 4.3 | 0.00 | 0.00 | 0.00 | 57 | 1005.8 |
| 20260503170517 | 68 | 49 | 1.7 | 6.1 | 0.00 | 0.00 | 0.00 | 58 | 1005.8 |
| 20260503150516 | 63 | 292 | 0.9 | 4.3 | 0.00 | 0.00 | 0.00 | 63 | 1005.6 |
| 20260503130518 | 58 | 124 | 0.9 | 2.6 | 0.00 | 0.00 | 0.00 | 69 | 1004.7 |
| 20260503110517 | 59 | 123 | 0.9 | 2.6 | 0.00 | 0.00 | 0.00 | 67 | 1005.1 |
| 20260503081516 | 61 | 207 | 0.0 | 1.7 | 0.00 | 0.00 | 0.00 | 60 | 1005.2 |
| 20260503080517 | 62 | 261 | 0.9 | 2.6 | 0.00 | 0.00 | 0.00 | 58 | 1005.2 |
| 20260503072517 | 62 | 183 | 0.0 | 1.7 | 0.00 | 0.00 | 0.00 | 58 | 1005.1 |
| 20260503071517 | 62 | 194 | 0.0 | 0.9 | 0.00 | 0.00 | 0.00 | 58 | 1005.1 |
| 20260503070518 | 62 | 239 | 0.0 | 1.7 | 0.00 | 0.00 | 0.00 | 58 | 1005.0 |
| 20260503054516 | 63 | 165 | 0.0 | 1.7 | 0.00 | 0.00 | 0.00 | 56 | 1004.9 |
| 20260503053516 | 62 | 160 | 0.0 | 1.7 | 0.00 | 0.00 | 0.00 | 58 | 1004.9 |
| 20260503052516 | 62 | 156 | 0.0 | 1.7 | 0.00 | 0.00 | 0.00 | 60 | 1004.9 |
| 20260503051557 | 62 | 183 | 0.0 | 1.7 | 0.00 | 0.00 | 0.00 | 59 | 1004.8 |
| 20260503050516 | 61 | 259 | 0.9 | 1.7 | 0.00 | 0.00 | 0.00 | 61 | 1004.8 |
| 20260503045516 | 61 | 227 | 0.0 | 1.7 | 0.00 | 0.00 | 0.00 | 65 | 1004.7 |
| 20260503044517 | 62 | 157 | 0.9 | 1.7 | 0.00 | 0.00 | 0.00 | 64 | 1004.7 |
| 20260503043517 | 62 | 163 | 0.0 | 1.7 | 0.00 | 0.00 | 0.00 | 63 | 1004.6 |
| 20260503042517 | 64 | 170 | 0.0 | 1.7 | 0.00 | 0.00 | 0.00 | 61 | 1004.5 |
| 20260503041537 | 65 | 162 | 0.9 | 2.6 | 0.00 | 0.00 | 0.00 | 56 | 1004.5 |
| 20260503040518 | 66 | 129 | 1.7 | 3.5 | 0.00 | 0.00 | 0.00 | 53 | 1004.4 |
| 20260503035538 | 67 | 136 | 0.9 | 2.6 | 0.00 | 0.00 | 0.00 | 51 | 1004.3 |
| 20260503034518 | 67 | 155 | 0.9 | 2.6 | 0.00 | 0.00 | 0.00 | 51 | 1004.2 |
| 20260503033518 | 67 | 236 | 0.9 | 3.5 | 0.00 | 0.00 | 0.00 | 51 | 1003.9 |
| 20260503032518 | 68 | 283 | 1.7 | 4.3 | 0.00 | 0.00 | 0.00 | 50 | 1003.8 |
| 20260503031536 | 68 | 258 | 0.9 | 3.5 | 0.00 | 0.00 | 0.00 | 50 | 1003.8 |
| 20260503030515 | 69 | 294 | 2.6 | 6.1 | 0.00 | 0.00 | 0.00 | 49 | 1003.8 |
| 20260503025656 | 70 | 272 | 1.7 | 4.3 | 0.00 | 0.00 | 0.00 | 48 | 1003.7 |
| 20260503024516 | 70 | 302 | 3.5 | 7.0 | 0.00 | 0.00 | 0.00 | 47 | 1003.8 |
| 20260503023516 | 71 | 305 | 2.6 | 6.1 | 0.00 | 0.00 | 0.00 | 46 | 1003.7 |
| 20260503022516 | 71 | 304 | 2.6 | 7.8 | 0.00 | 0.00 | 0.00 | 46 | 1003.8 |
| 20260503021538 | 72 | 317 | 3.5 | 7.8 | 0.00 | 0.00 | 0.00 | 46 | 1003.8 |
| 20260503020516 | 72 | 304 | 2.6 | 5.2 | 0.00 | 0.00 | 0.00 | 47 | 1003.9 |
| 20260503015517 | 72 | 307 | 2.6 | 11.3 | 0.00 | 0.00 | 0.00 | 47 | 1004.0 |
| 20260503014517 | 72 | 306 | 3.5 | 8.7 | 0.00 | 0.00 | 0.00 | 47 | 1004.1 |
| 20260503013517 | 73 | 313 | 3.5 | 7.8 | 0.00 | 0.00 | 0.00 | 47 | 1004.2 |
| 20260503012517 | 73 | 309 | 3.5 | 8.7 | 0.00 | 0.00 | 0.00 | 47 | 1004.2 |
| 20260503011517 | 73 | 334 | 2.6 | 8.7 | 0.00 | 0.00 | 0.00 | 47 | 1004.3 |
| 20260503010518 | 74 | 322 | 2.6 | 8.7 | 0.00 | 0.00 | 0.00 | 47 | 1004.3 |
| 20260503005518 | 75 | 345 | 2.6 | 7.0 | 0.00 | 0.00 | 0.00 | 46 | 1004.5 |
| 20260503004538 | 75 | 300 | 2.6 | 7.0 | 0.00 | 0.00 | 0.00 | 46 | 1004.5 |
| 20260503003518 | 76 | 330 | 2.6 | 7.0 | 0.00 | 0.00 | 0.00 | 45 | 1004.6 |